Tracking 20093 objects as of 16-Dec-2019
HD Live streaming from Space Station
objects crossing your sky now

DELTA R/B(1)

Track DELTA R/B(1) now!
10-day predictions


NORAD ID: 25619
Int'l Code: 1999-003B
Perigee: 294.1 km
Apogee: 4,243.3 km
Inclination: 22.5 °
Period: 133.2 minutes
Semi major axis: 8639 km
RCS: 10.5824 m2 (large)
Launch date: February 7, 1999
Source: United States (US)
Launch site: AIR FORCE EASTERN TEST RANGE (AFETR)

Note: This is a ROCKET BODY
aabbcc
Your satellite tracking list
Your tracking list is empty




NASA's NSSDC Master Catalog

Two Line Element Set (TLE):
1 25619U 99003B   19348.67365637 +.00009101 -39071-5 +29908-3 0  9990
2 25619 022.4559 115.4767 2285519 184.7426 172.7092 10.81069332755948
Source of the keplerian elements: AFSPC